Aviation Digital Data Service (ADDS)

Output produced by METARs form (0338 UTC 24 February 2017)
found at http://www.aviationweather.gov/adds/metars/
 
ORBD 240255Z 00000KT 9000 FUHZ FEW020 04/M03 A3022 RMK FU FEW020 SLP232 WND DATA/ALSTG/SLP ESTMD 52010
TAF ORBD 2403/2509 34007KT 8000 FUHZ FEW019 QNH3018INS FU FEW019 TX22/2412Z TN04/2404Z
       
ORBI 240300Z 29004KT CAVOK 05/M03 Q1023 NOSIG
TAF ORBI 232200Z 2400/2424 32008KT CAVOK
       
ORER 240300Z VRB02KT 8000 NSC 04/M01 Q1024 NOSIG
TAF ORER 232200Z 2400/2424 VRB03KT CAVOK
       
ORMM 240300Z 28006KT CAVOK 06/06 Q1022 NOSIG
TAF ORMM 232200Z 2400/2424 28006KT 5000 BR NSC 
     BECMG 2404/2406 3000
       
ORNI 240300Z 29003KT 8000 NSC 07/M04 Q1023 NOSIG
TAF ORNI 232200Z 2400/2424 32008KT 7000 NSC
       
ORSU 240300Z 30005KT CAVOK M02/M04 Q1025
TAF ORSU 232300Z 2400/2500 31006KT CAVOK 
     TEMPO 2402/2407 VRB03KT 8000 NSC
       
ORBD 240255Z 00000KT 9000 FUHZ FEW020 04/M03 A3022 RMK FU FEW020 SLP232 WND DATA/ALSTG/SLP ESTMD 52010
TAF ORBD 2403/2509 34007KT 8000 FUHZ FEW019 QNH3018INS FU FEW019 TX22/2412Z TN04/2404Z
       
ORBI 240300Z 29004KT CAVOK 05/M03 Q1023 NOSIG
TAF ORBI 232200Z 2400/2424 32008KT CAVOK
       
ORER 240300Z VRB02KT 8000 NSC 04/M01 Q1024 NOSIG
TAF ORER 232200Z 2400/2424 VRB03KT CAVOK
       
ORMM 240300Z 28006KT CAVOK 06/06 Q1022 NOSIG
TAF ORMM 232200Z 2400/2424 28006KT 5000 BR NSC 
     BECMG 2404/2406 3000
       
ORNI 240300Z 29003KT 8000 NSC 07/M04 Q1023 NOSIG
TAF ORNI 232200Z 2400/2424 32008KT 7000 NSC
       
ORSU 240300Z 30005KT CAVOK M02/M04 Q1025
TAF ORSU 232300Z 2400/2500 31006KT CAVOK 
     TEMPO 2402/2407 VRB03KT 8000 NSC
       
ORBD 240255Z 00000KT 9000 FUHZ FEW020 04/M03 A3022 RMK FU FEW020 SLP232 WND DATA/ALSTG/SLP ESTMD 52010
TAF ORBD 2403/2509 34007KT 8000 FUHZ FEW019 QNH3018INS FU FEW019 TX22/2412Z TN04/2404Z
       
ORBI 240300Z 29004KT CAVOK 05/M03 Q1023 NOSIG
TAF ORBI 232200Z 2400/2424 32008KT CAVOK
       
ORER 240300Z VRB02KT 8000 NSC 04/M01 Q1024 NOSIG
TAF ORER 232200Z 2400/2424 VRB03KT CAVOK
       
ORMM 240300Z 28006KT CAVOK 06/06 Q1022 NOSIG
TAF ORMM 232200Z 2400/2424 28006KT 5000 BR NSC 
     BECMG 2404/2406 3000
       
ORNI 240300Z 29003KT 8000 NSC 07/M04 Q1023 NOSIG
TAF ORNI 232200Z 2400/2424 32008KT 7000 NSC
       
ORSU 240300Z 30005KT CAVOK M02/M04 Q1025
TAF ORSU 232300Z 2400/2500 31006KT CAVOK 
     TEMPO 2402/2407 VRB03KT 8000 NSC
       
ORBD 240255Z 00000KT 9000 FUHZ FEW020 04/M03 A3022 RMK FU FEW020 SLP232 WND DATA/ALSTG/SLP ESTMD 52010
TAF ORBD 2403/2509 34007KT 8000 FUHZ FEW019 QNH3018INS FU FEW019 TX22/2412Z TN04/2404Z
       
ORBI 240300Z 29004KT CAVOK 05/M03 Q1023 NOSIG
TAF ORBI 232200Z 2400/2424 32008KT CAVOK
       
ORER 240300Z VRB02KT 8000 NSC 04/M01 Q1024 NOSIG
TAF ORER 232200Z 2400/2424 VRB03KT CAVOK
       
ORMM 240300Z 28006KT CAVOK 06/06 Q1022 NOSIG
TAF ORMM 232200Z 2400/2424 28006KT 5000 BR NSC 
     BECMG 2404/2406 3000
       
ORNI 240300Z 29003KT 8000 NSC 07/M04 Q1023 NOSIG
TAF ORNI 232200Z 2400/2424 32008KT 7000 NSC
       
ORSU 240300Z 30005KT CAVOK M02/M04 Q1025
TAF ORSU 232300Z 2400/2500 31006KT CAVOK 
     TEMPO 2402/2407 VRB03KT 8000 NSC
       
ORBD 240255Z 00000KT 9000 FUHZ FEW020 04/M03 A3022 RMK FU FEW020 SLP232 WND DATA/ALSTG/SLP ESTMD 52010
TAF ORBD 2403/2509 34007KT 8000 FUHZ FEW019 QNH3018INS FU FEW019 TX22/2412Z TN04/2404Z
       
ORBI 240300Z 29004KT CAVOK 05/M03 Q1023 NOSIG
TAF ORBI 232200Z 2400/2424 32008KT CAVOK
       
ORER 240300Z VRB02KT 8000 NSC 04/M01 Q1024 NOSIG
TAF ORER 232200Z 2400/2424 VRB03KT CAVOK
       
ORMM 240300Z 28006KT CAVOK 06/06 Q1022 NOSIG
TAF ORMM 232200Z 2400/2424 28006KT 5000 BR NSC 
     BECMG 2404/2406 3000
       
ORNI 240300Z 29003KT 8000 NSC 07/M04 Q1023 NOSIG
TAF ORNI 232200Z 2400/2424 32008KT 7000 NSC
       
ORSU 240300Z 30005KT CAVOK M02/M04 Q1025
TAF ORSU 232300Z 2400/2500 31006KT CAVOK 
     TEMPO 2402/2407 VRB03KT 8000 NSC
       
ORMM 240300Z 28006KT CAVOK 06/06 Q1022 NOSIG
TAF ORMM 232200Z 2400/2424 28006KT 5000 BR NSC 
     BECMG 2404/2406 3000
       
ORBD 240255Z 00000KT 9000 FUHZ FEW020 04/M03 A3022 RMK FU FEW020 SLP232 WND DATA/ALSTG/SLP ESTMD 52010
TAF ORBD 2403/2509 34007KT 8000 FUHZ FEW019 QNH3018INS FU FEW019 TX22/2412Z TN04/2404Z
       
ORBI 240300Z 29004KT CAVOK 05/M03 Q1023 NOSIG
TAF ORBI 232200Z 2400/2424 32008KT CAVOK
       
ORER 240300Z VRB02KT 8000 NSC 04/M01 Q1024 NOSIG
TAF ORER 232200Z 2400/2424 VRB03KT CAVOK
       
ORMM 240300Z 28006KT CAVOK 06/06 Q1022 NOSIG
TAF ORMM 232200Z 2400/2424 28006KT 5000 BR NSC 
     BECMG 2404/2406 3000
       
ORNI 240300Z 29003KT 8000 NSC 07/M04 Q1023 NOSIG
TAF ORNI 232200Z 2400/2424 32008KT 7000 NSC
       
ORSU 240300Z 30005KT CAVOK M02/M04 Q1025
TAF ORSU 232300Z 2400/2500 31006KT CAVOK 
     TEMPO 2402/2407 VRB03KT 8000 NSC
       
ORBD 240255Z 00000KT 9000 FUHZ FEW020 04/M03 A3022 RMK FU FEW020 SLP232 WND DATA/ALSTG/SLP ESTMD 52010
TAF ORBD 2403/2509 34007KT 8000 FUHZ FEW019 QNH3018INS FU FEW019 TX22/2412Z TN04/2404Z
       
ORBI 240300Z 29004KT CAVOK 05/M03 Q1023 NOSIG
TAF ORBI 232200Z 2400/2424 32008KT CAVOK
       
ORER 240300Z VRB02KT 8000 NSC 04/M01 Q1024 NOSIG
TAF ORER 232200Z 2400/2424 VRB03KT CAVOK
       
ORMM 240300Z 28006KT CAVOK 06/06 Q1022 NOSIG
TAF ORMM 232200Z 2400/2424 28006KT 5000 BR NSC 
     BECMG 2404/2406 3000
       
ORNI 240300Z 29003KT 8000 NSC 07/M04 Q1023 NOSIG
TAF ORNI 232200Z 2400/2424 32008KT 7000 NSC
       
ORSU 240300Z 30005KT CAVOK M02/M04 Q1025
TAF ORSU 232300Z 2400/2500 31006KT CAVOK 
     TEMPO 2402/2407 VRB03KT 8000 NSC
       
ORBD 240255Z 00000KT 9000 FUHZ FEW020 04/M03 A3022 RMK FU FEW020 SLP232 WND DATA/ALSTG/SLP ESTMD 52010
TAF ORBD 2403/2509 34007KT 8000 FUHZ FEW019 QNH3018INS FU FEW019 TX22/2412Z TN04/2404Z
       
ORBI 240300Z 29004KT CAVOK 05/M03 Q1023 NOSIG
TAF ORBI 232200Z 2400/2424 32008KT CAVOK
       
ORER 240300Z VRB02KT 8000 NSC 04/M01 Q1024 NOSIG
TAF ORER 232200Z 2400/2424 VRB03KT CAVOK
       
ORMM 240300Z 28006KT CAVOK 06/06 Q1022 NOSIG
TAF ORMM 232200Z 2400/2424 28006KT 5000 BR NSC 
     BECMG 2404/2406 3000
       
ORNI 240300Z 29003KT 8000 NSC 07/M04 Q1023 NOSIG
TAF ORNI 232200Z 2400/2424 32008KT 7000 NSC
       
ORSU 240300Z 30005KT CAVOK M02/M04 Q1025
TAF ORSU 232300Z 2400/2500 31006KT CAVOK 
     TEMPO 2402/2407 VRB03KT 8000 NSC
       
ORBD 240255Z 00000KT 9000 FUHZ FEW020 04/M03 A3022 RMK FU FEW020 SLP232 WND DATA/ALSTG/SLP ESTMD 52010
TAF ORBD 2403/2509 34007KT 8000 FUHZ FEW019 QNH3018INS FU FEW019 TX22/2412Z TN04/2404Z
       
ORBI 240300Z 29004KT CAVOK 05/M03 Q1023 NOSIG
TAF ORBI 232200Z 2400/2424 32008KT CAVOK
       
ORER 240300Z VRB02KT 8000 NSC 04/M01 Q1024 NOSIG
TAF ORER 232200Z 2400/2424 VRB03KT CAVOK
       
ORMM 240300Z 28006KT CAVOK 06/06 Q1022 NOSIG
TAF ORMM 232200Z 2400/2424 28006KT 5000 BR NSC 
     BECMG 2404/2406 3000
       
ORNI 240300Z 29003KT 8000 NSC 07/M04 Q1023 NOSIG
TAF ORNI 232200Z 2400/2424 32008KT 7000 NSC
       
ORSU 240300Z 30005KT CAVOK M02/M04 Q1025
TAF ORSU 232300Z 2400/2500 31006KT CAVOK 
     TEMPO 2402/2407 VRB03KT 8000 NSC